Theta_e
347 346 340 338 336 341 347 346 346 347 344 345 342 336 340 339 340 340 340 340 341 342 341 342 343 343 336 339 338 337 336 342 341 339 339 335 336 335 335 335 339 350 339
340 346 341 342 333 337 337 339 343 346 346 345 345 339 338 342 342 340 339 337 338 339 339 338 339 339 344 343 344 341 341 338 338 339 339 337 338 341 341 341 344 345 341
338 344 345 341 338 333 333 335 336 340 344 343 342 343 343 339 337 338 337 336 340 340 340 339 339 339 340 340 340 340 337 337 338 341 343 350 347 340 340 340 341 339 342
344 349 348 341 341 338 339 339 337 336 337 338 337 337 336 336 337 338 338 339 340 341 341 340 340 339 338 340 339 335 334 337 339 342 349 348 349 341 340 340 338 337 339
347 350 349 342 343 341 339 340 335 329 329 331 335 337 338 339 339 339 339 340 341 340 339 340 333 328 333 334 333 333 337 337 334 343 347 349 348 340 340 333 332 334 334
349 350 342 344 342 339 338 341 337 331 333 335 330 333 338 337 336 338 339 338 338 332 335 330 334 333 333 334 337 339 342 342 345 345 345 340 349 338 340 338 340 340 339
347 348 345 341 336 339 339 340 337 333 334 335 337 332 328 329 331 330 334 331 332 329 333 333 332 332 335 338 341 342 340 341 348 349 346 344 345 337 336 340 341 340 336
347 348 350 342 336 333 335 336 335 333 338 332 339 342 337 340 340 339 333 335 336 334 336 337 337 337 336 335 338 339 338 341 346 347 346 345 331 332 337 337 338 340 340
346 348 352 348 340 341 342 342 343 335 340 337 340 340 339 339 339 338 338 338 337 339 338 336 335 335 334 336 336 338 339 340 347 347 346 345 334 332 333 334 337 338 337
349 352 352 348 344 348 346 344 345 339 338 336 341 338 338 338 334 333 338 339 339 340 338 335 336 337 336 335 333 338 339 340 347 346 347 345 338 337 337 338 340 336 336
350 349 350 350 347 350 351 345 344 339 338 343 342 340 335 344 339 333 338 339 338 334 336 336 337 339 340 338 334 332 340 345 344 346 346 339 339 338 339 339 339 337 335
347 348 348 348 348 350 349 344 343 342 338 339 340 342 347 345 344 344 339 334 336 336 335 336 338 338 339 346 345 335 340 346 344 343 345 336 340 342 340 339 341 341 339
349 350 349 349 350 350 348 346 343 345 345 338 332 333 345 345 344 344 344 343 347 340 339 339 341 340 349 348 346 346 343 344 345 343 344 338 340 342 342 341 339 340 338
349 349 348 349 347 348 349 349 347 345 344 341 334 342 346 346 347 349 347 348 343 348 338 339 339 339 341 346 347 347 345 344 344 344 343 338 337 342 341 339 339 339 336
349 349 349 348 346 347 345 349 347 346 341 341 345 347 346 347 350 349 349 349 347 341 342 340 342 340 341 342 347 347 347 345 346 344 343 340 335 341 340 338 339 337 332
348 349 348 349 347 346 346 343 343 342 330 344 346 347 340 348 350 349 349 349 348 346 345 346 343 340 339 343 346 346 347 348 347 346 344 344 337 340 339 339 337 330 328
348 348 348 347 348 345 345 340 334 332 337 346 346 343 341 344 344 348 350 350 351 351 343 343 341 343 340 343 345 346 346 348 347 347 345 344 347 342 337 336 332 331 333
347 348 348 346 345 344 342 343 338 334 344 346 346 347 341 342 339 344 351 352 351 348 350 351 350 349 347 344 348 348 347 348 348 348 345 346 347 348 339 333 333 336 338
346 348 348 347 345 344 340 344 343 342 346 347 346 348 345 346 343 348 352 351 346 352 352 347 351 350 349 345 347 348 349 349 348 346 347 348 347 345 348 342 338 339 338
347 347 348 348 346 345 345 343 344 343 346 346 346 348 347 349 347 345 351 351 348 350 350 348 343 349 347 349 349 347 346 347 348 348 348 347 347 347 346 346 343 344 339
347 348 348 348 347 345 344 343 343 344 345 345 347 349 348 346 347 341 348 348 349 348 350 344 344 351 349 347 348 345 346 344 347 348 349 348 346 347 346 346 344 346 346
347 348 349 349 347 341 344 343 344 346 346 345 348 350 346 346 342 344 343 347 348 348 351 348 344 350 348 347 348 343 343 343 345 348 350 349 348 346 344 344 344 347 344
347 348 349 349 348 345 344 345 345 343 344 348 348 349 349 344 345 344 343 345 346 346 349 349 349 349 349 349 344 350 346 344 346 346 348 348 348 347 345 346 347 348 347
348 348 348 349 349 347 340 346 346 344 343 345 345 347 350 345 344 347 349 350 340 350 345 351 348 348 347 348 346 348 345 347 346 348 347 348 349 349 349 348 345 346 346
347 347 348 350 349 348 346 345 347 342 346 346 341 346 346 345 344 351 349 351 350 345 348 343 344 344 350 350 349 352 348 348 344 348 348 347 348 347 347 346 346 343 345
347 347 347 349 349 348 347 344 346 343 346 345 347 347 348 348 349 346 350 345 349 343 343 347 342 344 347 349 350 347 351 349 348 347 348 348 343 347 347 348 348 348 347
Wind_Speed
13 12 14 15 15 14 14 14 13 13 13 13 13 14 13 12 11 9 8 8 8 6 3 3 2 3 7 5 4 7 5 2 1 3 6 10 8 6 6 5 8 6 6
18 14 13 13 14 13 12 11 10 10 11 12 12 12 10 7 7 6 5 4 4 4 3 3 2 2 4 4 2 2 1 2 5 8 7 8 7 6 5 7 14 9 7
20 17 14 13 13 11 11 10 10 10 9 9 9 9 8 5 3 2 2 3 2 2 2 3 3 2 2 2 3 2 5 5 6 9 10 7 5 5 6 7 9 8 7
17 16 13 14 13 11 10 10 9 8 7 7 7 6 5 2 3 2 2 2 1 2 3 3 4 3 2 3 4 4 7 6 6 11 7 7 7 6 6 9 8 9 6
22 16 15 14 11 10 9 8 8 6 6 5 5 5 4 3 3 2 2 2 3 3 3 2 2 3 4 4 5 6 8 8 8 9 6 8 7 5 6 5 8 10 4
16 14 15 13 12 9 8 7 7 5 5 6 6 5 5 4 4 3 3 3 2 2 3 3 3 3 3 4 5 5 5 3 9 5 6 9 7 8 10 9 7 9 9
15 14 13 12 12 10 8 7 7 6 6 6 7 8 8 5 5 5 4 3 4 4 5 4 4 3 4 3 3 3 4 4 5 5 5 6 4 6 8 8 7 8 8
14 12 11 12 11 10 9 7 7 7 7 8 8 7 7 5 5 5 5 5 5 5 5 3 1 1 3 3 3 3 3 6 4 5 5 5 5 6 6 6 6 6 5
14 13 12 10 12 10 9 7 8 9 8 8 8 8 6 6 5 5 5 5 6 4 4 4 1 1 2 3 5 4 3 6 6 4 4 4 5 6 6 5 6 6 5
14 12 12 12 12 9 8 8 8 10 9 9 10 7 6 4 4 5 4 4 5 5 4 5 2 3 3 4 6 3 2 3 5 3 5 5 4 5 6 6 6 5 6
12 12 11 10 10 9 8 9 10 12 12 11 10 7 5 4 3 3 7 7 5 5 3 4 4 5 5 5 8 8 2 4 2 4 3 3 3 3 2 3 3 3 5
14 13 13 11 10 9 9 10 12 12 12 12 9 8 6 6 6 7 5 7 6 7 5 5 6 7 7 8 7 10 5 7 4 5 6 0 1 1 1 2 4 4 5
14 13 12 12 11 10 9 10 14 10 9 10 10 8 6 4 3 2 3 3 4 3 5 3 5 4 7 8 7 10 12 9 6 6 9 3 3 4 5 4 5 6 6
14 12 12 12 13 11 8 9 12 11 10 7 10 9 6 5 5 5 4 5 4 4 5 7 5 7 6 6 8 7 9 10 9 7 11 6 4 6 6 6 6 6 6
14 13 12 13 12 10 10 10 12 12 11 9 8 8 8 7 5 3 4 4 4 4 3 4 5 5 4 6 6 9 9 12 12 9 9 10 6 7 6 6 6 6 6
14 13 12 12 11 11 11 14 17 12 15 12 9 7 10 7 5 5 3 3 3 2 3 5 2 5 5 4 4 6 9 11 12 11 9 9 9 8 5 5 4 4 4
14 12 14 13 11 11 12 15 16 15 16 9 8 9 10 7 5 7 4 3 1 3 3 3 2 2 2 2 3 2 3 8 10 11 10 7 9 7 5 4 4 2 2
14 15 14 13 13 13 14 15 14 16 12 9 7 7 10 7 7 4 3 2 2 1 1 2 3 3 3 4 3 1 2 6 9 9 9 8 7 5 5 5 5 3 1
15 16 15 14 13 13 15 13 12 12 11 9 8 7 9 8 7 8 5 4 1 0 1 3 3 4 6 5 4 4 4 6 7 7 9 8 8 8 6 8 5 4 2
14 16 15 14 14 16 13 13 12 11 10 10 9 8 8 7 9 9 7 7 3 3 4 5 1 4 5 4 4 6 5 6 7 8 8 7 8 8 8 8 5 5 5
15 17 17 17 15 16 16 14 13 11 10 10 10 10 8 6 9 10 6 7 5 6 5 4 4 3 2 1 2 3 5 6 7 8 7 6 7 8 10 8 7 6 8
18 18 19 18 17 17 15 14 12 11 10 10 10 10 9 7 7 7 8 7 8 6 7 5 5 2 2 2 3 3 6 4 7 7 7 6 7 5 7 9 8 8 5
19 19 20 19 19 18 15 15 14 12 13 11 11 11 9 10 9 7 7 6 8 4 6 6 5 4 2 3 3 3 3 1 6 4 5 5 7 5 4 6 7 7 7
19 18 20 20 21 19 20 16 15 11 14 12 9 10 11 11 11 7 6 6 7 4 7 4 4 5 3 3 2 3 2 3 2 5 3 4 6 6 6 5 5 6 6
17 17 19 21 22 20 20 19 16 15 11 10 12 12 9 9 10 7 8 6 7 7 6 7 5 5 4 3 3 3 2 2 2 1 4 6 4 4 5 7 4 4 4
17 16 17 20 22 23 21 22 19 16 14 12 12 10 9 8 8 10 9 8 6 7 5 5 6 6 5 5 4 4 2 2 2 2 2 5 6 6 6 6 6 5 6
Wind_Direction
150 149 134 125 121 122 126 126 130 127 137 135 134 133 129 115 114 113 106 108 115 127 125 145 124 140 162 180 190 174 201 264 121 124 120 148 151 154 167 152 111 148 123
160 151 147 131 132 128 131 130 130 129 128 125 133 145 142 133 130 127 110 107 122 138 156 189 215 220 155 174 178 150 91 79 122 119 123 142 150 143 152 145 134 177 144
163 156 153 139 133 137 133 133 135 136 132 128 133 139 143 137 127 127 143 145 144 129 147 172 174 196 196 175 169 148 119 122 110 101 100 108 138 152 176 160 155 153 138
152 152 155 145 141 140 136 135 129 135 134 134 143 155 159 169 144 150 144 149 194 145 125 137 148 160 160 146 150 125 115 107 105 96 90 117 115 121 146 155 153 155 145
159 143 175 151 144 141 152 145 140 134 123 144 160 170 161 165 163 172 146 139 137 137 137 147 152 139 136 147 126 115 114 96 94 82 104 115 110 122 129 147 180 193 196
143 155 162 154 147 151 159 153 149 136 127 132 136 157 158 158 179 150 151 147 143 156 150 132 120 103 131 138 133 127 115 108 90 115 98 118 114 131 144 182 174 184 189
154 154 157 159 155 158 172 170 161 158 149 146 140 133 131 130 142 159 168 143 131 128 123 124 115 124 119 128 127 133 114 100 107 121 115 122 148 136 139 156 162 160 166
159 160 172 166 161 164 177 172 168 176 149 147 152 143 145 144 139 135 136 137 133 132 128 131 143 149 148 180 207 217 156 126 72 121 123 112 151 156 150 152 159 162 166
158 172 158 164 168 162 173 166 179 179 166 170 152 161 159 157 159 149 149 154 152 159 154 145 205 358 39 294 235 242 211 144 122 162 106 93 131 144 149 168 181 179 186
169 165 163 164 167 162 179 187 183 177 169 167 159 183 179 167 170 174 162 178 172 178 177 163 219 234 221 221 256 280 235 164 135 149 120 194 137 143 154 165 178 194 206
167 165 171 169 169 178 179 197 177 173 174 163 175 186 169 140 142 178 193 201 177 132 234 230 227 246 242 218 229 247 246 204 170 169 153 123 124 137 171 202 198 219 227
175 175 175 176 186 182 172 184 157 170 173 173 190 169 153 169 168 168 189 196 187 183 211 269 277 262 250 241 259 239 223 222 218 211 217 300 351 293 243 235 235 235 240
179 182 189 183 185 174 179 185 174 161 168 175 178 159 167 169 175 142 203 190 199 222 218 253 325 289 257 248 245 239 232 220 227 217 227 249 297 308 283 269 245 240 242
188 185 181 190 192 179 177 168 162 168 175 169 167 157 179 141 181 166 187 207 211 214 254 255 274 262 260 273 238 244 232 212 219 223 238 248 297 309 279 267 251 245 250
192 185 189 193 189 185 175 170 165 171 169 170 168 180 176 169 178 173 193 185 209 234 280 270 289 224 265 237 262 248 218 224 221 224 219 249 286 307 274 256 244 245 260
196 187 189 189 192 189 177 183 169 169 178 163 178 194 176 170 191 198 190 208 221 259 264 253 255 262 279 275 281 236 223 221 225 221 217 260 283 290 259 239 228 248 281
198 195 191 189 196 191 185 172 178 174 173 176 191 193 187 188 210 187 212 202 241 250 307 262 273 328 276 274 301 258 178 209 209 214 217 233 282 276 246 214 218 238 292
193 191 189 187 195 187 184 181 189 178 174 191 199 202 201 199 200 196 210 215 233 169 259 253 247 251 266 238 285 309 178 193 195 210 216 228 222 244 253 215 208 218 295
193 193 193 188 190 191 197 189 184 194 187 199 203 200 218 216 212 190 214 241 208 252 271 272 248 248 265 267 238 221 211 202 207 217 221 213 219 206 215 252 217 232 291
196 195 193 195 193 192 196 193 192 199 201 204 205 202 219 227 224 216 228 233 256 282 296 291 259 266 271 275 232 221 207 202 201 207 225 226 228 217 212 214 233 248 290
197 198 199 193 194 186 193 193 197 204 204 210 207 214 213 220 221 223 223 251 253 267 273 306 278 297 291 290 191 209 207 204 206 209 215 225 227 223 217 216 206 230 293
200 202 200 200 196 197 195 191 194 203 220 215 207 220 217 226 224 219 228 245 256 252 276 278 277 237 263 281 215 189 193 207 209 204 214 210 214 207 220 222 212 216 217
199 201 201 202 200 195 192 193 199 204 209 209 216 221 224 224 219 227 259 245 256 239 272 274 284 259 264 286 202 231 234 97 162 180 203 204 204 189 195 202 208 228 231
201 200 199 199 198 198 199 201 198 205 215 214 222 224 218 214 220 240 248 254 249 247 266 260 272 235 241 250 288 264 273 211 265 150 188 192 179 181 203 206 214 218 224
198 197 197 197 198 197 201 196 211 203 213 216 212 223 213 223 226 229 249 245 248 254 283 250 260 221 232 215 243 283 271 227 217 336 176 175 172 199 210 187 205 202 236
193 192 196 198 201 202 203 209 210 207 202 207 211 216 224 226 240 253 238 247 248 254 278 253 239 236 224 227 241 253 227 218 248 210 197 187 201 179 199 205 213 215 225